Date String (YYYY-MM-DD hh:mm:ss) UTC,Instrument flags,Ambient pressure (hPa),Sample flow (lpm),Bypass flow (lpm),Sample temperature (°C),Ambient temperature (°C),ASC tube jacket temperature (°C),LED temperature (°C),Box temperature (°C),Sample RH (%),Span deviation,Mass concentration (μg/m³),Mass concentration (μg/m³),Mass concentration (μg/m³)
DateTimeUTC,F1_M11,P_M11,Q1_M11,Q2_M11,T1_M11,T2_M11,T3_M11,T4_M11,T5_M11,U1_M11,ZSPAN_M11,X0_M11,X2_M11,X1_M11
2022-09-24 22:00:00,,0829.4,5.01,0.00,29.8,28.2,00.0,38.5,31.8,12.3,0000.0,0006.50,0003.22,0002.40
2022-09-24 22:01:00,,0829.4,4.99,0.00,29.8,28.4,00.0,38.5,31.8,12.0,0000.0,0006.51,0003.25,0002.42
2022-09-24 22:02:00,,0829.4,5.01,0.00,29.9,28.6,00.0,38.5,31.9,12.4,0000.0,0006.42,0003.24,0002.43
2022-09-24 22:03:00,,0829.4,5.00,0.00,29.9,28.7,00.0,38.5,31.9,12.1,0000.0,0006.42,0003.21,0002.44
2022-09-24 22:04:00,,0829.5,4.99,0.00,30.0,28.9,00.0,38.6,32.0,11.8,0000.0,0007.45,0003.21,0002.46
2022-09-24 22:05:00,,0829.5,5.00,0.00,30.0,29.0,00.0,38.6,32.1,12.3,0000.0,0007.69,0003.21,0002.49
2022-09-24 22:06:00,,0829.5,5.01,0.00,30.0,28.2,00.0,38.6,32.0,11.8,0000.0,0007.74,0003.23,0002.52
2022-09-24 22:07:00,,0829.4,5.00,0.00,30.0,26.8,00.0,38.6,31.8,11.9,0000.0,0007.66,0003.24,0002.54
2022-09-24 22:08:00,,0829.4,5.00,0.00,29.9,26.6,00.0,38.5,31.7,11.6,0000.0,0007.45,0003.23,0002.55
2022-09-24 22:09:00,,0829.4,5.01,0.00,29.9,26.8,00.0,38.5,31.7,11.4,0000.0,0007.40,0003.22,0002.57
2022-09-24 22:10:00,,0829.4,4.99,0.00,29.8,27.2,00.0,38.5,31.5,11.6,0000.0,0007.25,0003.20,0002.58
2022-09-24 22:11:00,,0829.5,5.00,0.00,29.8,27.5,00.0,38.5,31.6,11.9,0000.0,0007.03,0003.18,0002.57
2022-09-24 22:12:00,,0829.4,5.00,0.00,29.8,27.8,00.0,38.5,31.7,12.2,0000.0,0007.14,0003.16,0002.55
2022-09-24 22:13:00,,0829.5,4.99,0.00,29.8,28.1,00.0,38.5,31.7,12.0,0000.0,0007.43,0003.20,0002.56
2022-09-24 22:14:00,,0829.5,5.01,0.00,29.9,28.3,00.0,38.5,31.8,12.0,0000.0,0007.81,0003.19,0002.54
2022-09-24 22:15:00,,0829.5,4.99,0.00,29.9,28.5,00.0,38.5,31.9,11.9,0000.0,0007.12,0003.17,0002.52
2022-09-24 22:16:00,,0829.5,5.00,0.00,29.9,28.7,00.0,38.6,31.9,11.6,0000.0,0006.82,0003.17,0002.51
2022-09-24 22:17:00,,0829.5,5.01,0.00,30.0,28.9,00.0,38.6,32.0,12.0,0000.0,0006.82,0003.16,0002.49
2022-09-24 22:18:00,,0829.5,5.00,0.00,30.0,29.0,00.0,38.6,32.0,11.8,0000.0,0006.75,0003.15,0002.48
2022-09-24 22:19:00,,0829.5,4.99,0.00,30.1,28.7,00.0,38.6,32.0,11.5,0000.0,0007.90,0003.16,0002.47
2022-09-24 22:20:00,,0829.4,5.01,0.00,30.0,27.2,00.0,38.6,31.9,11.4,0000.0,0008.02,0003.17,0002.45
2022-09-24 22:21:00,,0829.4,4.99,0.00,29.9,26.5,00.0,38.6,31.7,11.7,0000.0,0008.12,0003.18,0002.43
2022-09-24 22:22:00,,0829.4,5.01,0.00,29.9,26.7,00.0,38.5,31.7,11.6,0000.0,0008.27,0003.21,0002.43
2022-09-24 22:23:00,,0829.4,5.00,0.00,29.8,27.0,00.0,38.5,31.6,11.8,0000.0,0008.11,0003.19,0002.44
2022-09-24 22:24:00,,0829.5,4.99,0.00,29.8,27.4,00.0,38.5,31.6,12.4,0000.0,0007.96,0003.16,0002.44
2022-09-24 22:25:00,,0829.5,5.00,0.00,29.8,27.7,00.0,38.5,31.7,12.1,0000.0,0007.31,0003.17,0002.45
2022-09-24 22:26:00,,0829.5,5.00,0.00,29.8,28.0,00.0,38.5,31.7,11.8,0000.0,0007.09,0003.17,0002.46
2022-09-24 22:27:00,,0829.5,5.01,0.00,29.8,28.2,00.0,38.5,31.8,11.5,0000.0,0006.90,0003.18,0002.47
2022-09-24 22:28:00,,0829.5,4.99,0.00,29.9,28.4,00.0,38.5,31.8,11.8,0000.0,0006.85,0003.20,0002.49
2022-09-24 22:29:00,,0829.5,5.00,0.00,29.9,28.6,00.0,38.6,31.9,11.5,0000.0,0007.02,0003.23,0002.51
2022-09-24 22:30:00,,0829.5,5.00,0.00,30.0,28.8,00.0,38.6,32.0,12.0,0000.0,0006.01,0003.27,0002.52
2022-09-24 22:31:00,,0829.5,5.00,0.00,30.0,28.9,00.0,38.6,32.0,11.6,0000.0,0005.86,0003.29,0002.55
2022-09-24 22:32:00,,0829.4,5.00,0.00,30.0,28.3,00.0,38.6,32.0,11.7,0000.0,0005.97,0003.30,0002.56
2022-09-24 22:33:00,,0829.4,5.01,0.00,30.0,26.9,00.0,38.6,31.8,11.9,0000.0,0006.33,0003.28,0002.58
2022-09-24 22:34:00,,0829.4,5.00,0.00,29.9,26.5,00.0,38.5,31.7,11.9,0000.0,0007.32,0003.31,0002.60
2022-09-24 22:35:00,,0829.4,4.99,0.00,29.9,26.8,00.0,38.5,31.6,11.8,0000.0,0007.32,0003.30,0002.61
2022-09-24 22:36:00,,0829.4,5.00,0.00,29.8,27.1,00.0,38.5,31.6,11.8,0000.0,0007.33,0003.30,0002.62
2022-09-24 22:37:00,,0829.4,5.00,0.00,29.8,27.4,00.0,38.5,31.6,11.6,0000.0,0007.41,0003.33,0002.64
2022-09-24 22:38:00,,0829.5,5.01,0.00,29.8,27.8,00.0,38.5,31.7,11.9,0000.0,0007.42,0003.34,0002.63
2022-09-24 22:39:00,,0829.5,4.98,0.00,29.8,28.0,00.0,38.5,31.7,12.0,0000.0,0007.37,0003.33,0002.63
2022-09-24 22:40:00,,0829.5,4.99,0.00,29.8,28.3,00.0,38.5,31.8,11.9,0000.0,0007.19,0003.30,0002.63
2022-09-24 22:41:00,,0829.5,5.01,0.00,29.9,28.5,00.0,38.5,31.9,11.6,0000.0,0006.86,0003.27,0002.64
2022-09-24 22:42:00,,0829.5,5.00,0.00,29.9,28.7,00.0,38.5,31.9,12.0,0000.0,0006.67,0003.25,0002.64
2022-09-24 22:43:00,,0829.5,5.00,0.00,30.0,28.9,00.0,38.6,32.0,11.5,0000.0,0006.46,0003.24,0002.64
2022-09-24 22:44:00,,0829.5,5.00,0.00,30.0,29.0,00.0,38.6,32.0,11.0,0000.0,0006.04,0003.24,0002.66
2022-09-24 22:45:00,,0829.5,5.00,0.00,30.0,28.1,00.0,38.6,31.9,11.2,0000.0,0005.39,0003.24,0002.65
2022-09-24 22:46:00,,0829.5,5.00,0.00,30.0,26.7,00.0,38.5,31.8,11.4,0000.0,0005.61,0003.26,0002.66
2022-09-24 22:47:00,,0829.5,5.01,0.00,29.9,26.5,00.0,38.5,31.7,11.5,0000.0,0005.75,0003.28,0002.66
2022-09-24 22:48:00,,0829.5,5.01,0.00,29.8,26.8,00.0,38.5,31.6,11.8,0000.0,0005.62,0003.25,0002.67
2022-09-24 22:49:00,,0829.6,4.99,0.00,29.8,27.1,00.0,38.5,31.5,11.7,0000.0,0006.51,0003.23,0002.67
2022-09-24 22:50:00,,0829.5,5.00,0.00,29.8,27.4,00.0,38.5,31.6,11.7,0000.0,0006.68,0003.21,0002.67
2022-09-24 22:51:00,,0829.5,5.00,0.00,29.8,27.7,00.0,38.5,31.7,11.5,0000.0,0006.94,0003.21,0002.67
2022-09-24 22:52:00,,0829.5,5.01,0.00,29.8,28.0,00.0,38.5,31.7,11.5,0000.0,0007.22,0003.21,0002.67
2022-09-24 22:53:00,,0829.6,5.00,0.00,29.8,28.3,00.0,38.5,31.8,11.3,0000.0,0007.45,0003.22,0002.68
2022-09-24 22:54:00,,0829.5,5.00,0.00,29.8,28.5,00.0,38.5,31.9,11.5,0000.0,0007.53,0003.23,0002.69
2022-09-24 22:55:00,,0829.6,5.01,0.00,29.9,28.7,00.0,38.5,31.9,11.7,0000.0,0007.52,0003.23,0002.69
2022-09-24 22:56:00,,0829.6,5.00,0.00,29.9,28.8,00.0,38.6,32.0,11.7,0000.0,0007.03,0003.21,0002.69
2022-09-24 22:57:00,,0829.5,5.00,0.00,30.0,29.0,00.0,38.6,32.0,11.7,0000.0,0006.85,0003.19,0002.70
2022-09-24 22:58:00,,0829.5,4.99,0.00,30.0,28.5,00.0,38.6,32.0,11.2,0000.0,0006.71,0003.16,0002.69
2022-09-24 22:59:00,,0829.5,5.01,0.00,30.0,27.0,00.0,38.6,31.8,11.1,0000.0,0006.94,0003.15,0002.67
